Dewpoint
-3 -1 -1 -3 -4 -6 -7 -7 -7 -6 -4 -3 0 -1 -3 -5 -5 -5 -5 -6 -6 -6 -7 -6 -3 -1 0 1 1 2 3 4 4 5 6 6 6 6 5 3 2 -0 -1 -1
-2 -2 -4 -5 -5 -5 -5 -5 -5 -6 -6 -5 -0 -1 -4 -6 -6 -6 -6 -7 -7 -7 -7 -7 -6 -3 -1 -1 1 1 2 2 3 4 4 5 5 6 6 5 2 -0 -1 -1
-2 -2 -3 -4 -4 -3 -4 -3 -3 -3 -3 -5 -1 -1 -3 -7 -7 -8 -8 -8 -8 -8 -8 -8 -8 -6 -4 -2 -1 -1 0 1 2 3 3 4 4 4 4 4 3 2 1 0
-3 -4 -4 -3 -3 -4 -2 -4 -4 -3 -1 0 -3 1 0 -5 -7 -9 -9 -9 -9 -9 -9 -9 -9 -8 -7 -5 -3 -2 -1 -0 1 2 3 3 3 4 4 4 4 4 2 2
-1 -1 -2 -1 -2 -4 -2 -3 -3 -2 -1 -1 0 1 0 -5 -5 -8 -10 -10 -10 -11 -11 -10 -10 -10 -9 -8 -6 -5 -3 -2 -1 0 1 2 3 3 3 3 3 3 3 3
-1 -2 -2 -1 -2 -3 -2 -1 -0 -0 0 4 0 0 1 -2 -5 -8 -10 -11 -12 -12 -12 -12 -11 -11 -11 -10 -9 -7 -6 -5 -3 -2 -1 -0 1 2 2 2 3 3 2 2
-2 -1 -2 -2 -1 -2 -1 1 3 3 4 1 -1 0 -3 -7 -9 -10 -11 -12 -12 -12 -13 -12 -12 -12 -12 -11 -11 -10 -9 -8 -6 -5 -3 -2 -2 -1 -0 0 2 2 2 2
2 4 -0 -1 -1 0 1 0 -0 0 0 -1 -1 0 -3 -9 -11 -12 -12 -12 -13 -13 -13 -13 -13 -13 -13 -12 -12 -11 -11 -10 -9 -8 -6 -5 -4 -3 -3 -3 -2 -1 0 1
2 3 -1 -4 -2 -1 0 2 -1 1 -1 1 -0 -4 -8 -11 -11 -12 -13 -13 -14 -14 -14 -14 -15 -15 -14 -14 -14 -13 -12 -11 -11 -11 -10 -8 -7 -6 -5 -4 -4 -3 -3 -1
-0 3 -2 -6 -2 -3 -0 -1 2 2 2 1 -3 -2 -3 -8 -10 -12 -13 -13 -14 -15 -16 -17 -17 -17 -17 -16 -16 -16 -15 -14 -13 -12 -11 -11 -10 -9 -8 -6 -5 -5 -4 -4
-6 -2 -4 -5 -3 -1 -1 1 0 1 1 -0 -4 -3 -10 -10 -11 -12 -13 -14 -14 -16 -17 -17 -18 -18 -18 -18 -22 -25 -24 -21 -18 -17 -16 -13 -11 -11 -10 -10 -9 -7 -6 -5
-9 -6 -5 -4 -7 -9 -7 -5 -5 1 -2 -1 0 -4 -12 -12 -13 -14 -14 -14 -15 -17 -17 -17 -18 -18 -23 -26 -28 -29 -30 -30 -30 -28 -25 -22 -21 -16 -12 -11 -11 -10 -9 -8
-11 -11 -9 -4 -4 -5 -5 -6 -5 -4 -4 -1 -2 -6 -13 -14 -14 -15 -15 -15 -16 -16 -16 -17 -22 -25 -28 -29 -30 -30 -31 -31 -31 -32 -32 -31 -31 -28 -27 -24 -17 -12 -10 -10
-10 -7 -5 -5 -3 -5 -4 -6 -7 -5 -3 -4 -5 -7 -11 -13 -14 -15 -16 -15 -15 -15 -15 -20 -27 -28 -29 -30 -30 -30 -30 -30 -30 -30 -31 -31 -32 -32 -32 -33 -32 -32 -23 -14
-6 -5 -5 -7 -9 -8 -6 -6 -8 -6 -7 -6 -7 -8 -11 -14 -15 -16 -15 -15 -16 -15 -16 -21 -24 -27 -29 -30 -30 -30 -30 -30 -30 -30 -30 -30 -30 -31 -31 -32 -33 -33 -34 -34
-11 -5 -8 -7 -12 -11 -8 -9 -10 -10 -9 -9 -10 -9 -15 -16 -16 -17 -17 -16 -15 -16 -18 -26 -28 -28 -28 -28 -28 -28 -29 -29 -29 -29 -29 -29 -30 -30 -30 -31 -32 -32 -33 -33
-11 -8 -8 -7 -11 -10 -6 -9 -11 -11 -12 -11 -8 -12 -17 -17 -17 -17 -17 -15 -16 -19 -24 -26 -25 -26 -26 -27 -27 -27 -28 -28 -29 -29 -30 -30 -30 -30 -31 -31 -31 -31 -31 -31
-9 -8 -6 -5 -8 -4 -11 -14 -14 -12 -13 -14 -14 -16 -17 -17 -17 -16 -17 -16 -20 -23 -26 -25 -25 -25 -26 -25 -26 -27 -28 -28 -29 -29 -29 -29 -29 -30 -29 -29 -30 -30 -30 -29
-9 -7 -5 -4 -5 -8 -11 -13 -13 -12 -11 -16 -16 -17 -16 -18 -18 -16 -18 -20 -20 -23 -23 -23 -24 -24 -24 -27 -26 -26 -25 -27 -27 -25 -24 -26 -27 -26 -27 -28 -27 -27 -26 -26
-10 -9 -6 -5 -6 -7 -11 -14 -15 -15 -10 -17 -17 -17 -18 -19 -17 -16 -18 -26 -24 -21 -20 -20 -20 -20 -24 -24 -23 -21 -23 -23 -22 -22 -23 -23 -23 -24 -25 -26 -26 -25 -24 -22
-9 -8 -6 -6 -7 -9 -14 -15 -15 -9 -11 -17 -17 -18 -18 -19 -20 -21 -25 -23 -21 -20 -20 -20 -21 -21 -21 -20 -21 -21 -22 -23 -24 -24 -24 -24 -24 -24 -24 -24 -24 -23 -23 -21
-8 -6 -7 -8 -6 -7 -15 -15 -12 -15 -17 -17 -18 -18 -19 -20 -22 -22 -20 -20 -20 -20 -20 -21 -21 -21 -21 -21 -21 -23 -24 -25 -25 -24 -25 -25 -25 -25 -25 -24 -24 -23 -22 -22
-9 -12 -8 -10 -10 -15 -16 -16 -17 -19 -21 -19 -21 -23 -23 -22 -21 -20 -20 -20 -20 -21 -21 -22 -22 -22 -21 -22 -25 -25 -25 -25 -25 -25 -25 -26 -25 -25 -25 -23 -23 -23 -23 -22
-16 -17 -12 -15 -16 -16 -19 -20 -19 -19 -21 -25 -25 -24 -23 -21 -21 -20 -20 -21 -21 -22 -22 -22 -22 -21 -22 -25 -25 -25 -25 -25 -25 -25 -25 -25 -24 -24 -23 -24 -23 -23 -23 -23
-15 -17 -18 -17 -18 -20 -18 -18 -18 -20 -26 -25 -24 -23 -21 -21 -20 -20 -21 -22 -22 -22 -22 -22 -22 -23 -25 -25 -25 -25 -25 -24 -25 -25 -24 -24 -24 -24 -23 -23 -23 -22 -22 -22
-19 -18 -16 -14 -19 -23 -19 -21 -23 -26 -24 -24 -23 -22 -21 -20 -21 -22 -22 -22 -22 -22 -22 -22 -23 -24 -24 -24 -24 -25 -25 -25 -24 -24 -24 -24 -23 -23 -24 -23 -23 -23 -22 -21
Wind_Speed
13 9 11 14 15 11 5 5 7 7 7 10 16 14 10 12 15 16 18 20 22 23 22 25 28 27 25 21 20 15 11 4 5 6 5 5 9 9 10 12 14 12 11 12
5 15 14 6 9 12 10 10 10 5 5 3 14 12 10 12 15 17 17 19 20 21 24 25 27 29 30 28 25 21 18 12 6 3 5 7 7 4 8 10 14 14 15 15
11 3 3 10 9 11 13 13 11 6 5 8 16 8 10 11 14 16 18 18 20 21 23 25 26 28 29 30 29 27 23 18 12 7 7 8 6 6 11 13 15 15 15 16
10 4 6 8 12 12 12 11 12 7 7 8 16 3 11 11 10 14 16 18 19 20 20 22 24 26 28 29 27 25 24 21 17 12 6 4 4 4 3 2 4 10 12 14
4 7 10 11 12 10 6 0 8 11 13 12 10 6 8 12 8 9 13 16 17 19 20 22 23 23 25 26 26 25 24 22 20 17 13 6 4 9 10 6 3 3 8 11
0 2 4 0 3 5 9 8 7 5 6 8 16 13 8 5 5 7 10 13 16 17 18 20 20 20 22 23 24 25 24 23 21 20 17 14 9 5 8 12 11 9 7 2
10 8 3 2 5 3 8 10 5 5 5 7 0 12 10 8 7 8 8 11 14 16 18 20 22 22 23 25 25 25 25 24 23 21 19 17 14 11 9 7 7 10 11 12
12 6 9 2 4 4 14 13 5 7 10 7 5 5 6 9 9 8 9 10 13 16 17 19 20 21 22 23 24 25 25 24 23 21 20 19 17 15 14 12 10 9 11 14
6 5 5 6 2 3 7 7 3 5 7 4 7 6 5 8 8 7 8 10 13 15 16 17 18 19 20 21 22 23 24 23 22 22 20 19 18 17 16 15 14 13 13 15
2 3 1 3 1 4 2 3 4 5 5 11 9 8 5 10 7 5 7 9 11 13 15 16 17 19 19 19 20 21 22 22 23 22 20 19 19 18 18 18 17 16 16 16
2 3 5 4 6 5 1 4 3 4 3 5 10 5 7 9 6 4 6 8 11 13 15 16 16 16 17 18 20 21 22 22 23 22 22 22 20 19 18 18 19 20 19 19
3 2 3 4 6 6 4 4 4 4 5 1 3 4 4 7 5 5 5 7 9 11 13 15 16 17 20 22 23 23 23 23 23 23 22 21 22 21 21 20 19 19 20 21
2 1 4 4 3 2 3 4 2 2 1 4 4 3 4 4 4 5 6 7 10 10 12 16 20 21 24 24 25 24 24 24 23 22 23 23 22 22 22 22 22 20 19 19
2 3 3 2 5 3 4 3 5 3 1 2 0 6 7 3 3 5 8 9 10 10 12 19 23 24 24 25 26 26 25 24 25 24 23 23 23 24 25 24 23 23 22 21
3 3 3 5 4 5 4 4 4 1 3 3 4 4 6 2 5 7 9 9 8 8 13 21 24 25 26 26 26 26 26 26 27 27 27 26 26 25 25 25 25 25 23 23
2 3 3 2 4 2 3 3 3 3 3 3 2 3 2 2 4 6 9 8 6 8 17 24 25 26 27 28 28 29 27 27 28 28 29 28 28 28 28 27 26 26 25 25
2 4 3 3 3 2 3 4 2 3 5 4 2 4 2 2 7 10 9 6 5 14 24 26 25 25 26 26 27 29 29 28 27 29 29 29 29 30 29 28 28 28 27 26
6 5 1 3 4 3 4 3 3 3 2 2 5 4 3 6 13 14 5 2 12 24 26 26 25 26 25 25 26 27 27 26 27 27 27 26 28 29 29 29 29 29 28 27
4 3 3 3 5 4 1 2 3 4 2 3 2 3 6 13 14 3 2 9 23 26 25 24 24 25 24 25 25 25 26 26 25 25 26 27 27 28 28 29 30 29 28 28
3 3 1 2 2 3 4 4 2 1 2 3 3 5 11 15 6 4 12 28 26 23 22 23 23 22 25 24 24 23 26 23 22 21 23 24 24 26 27 29 29 28 27 27
3 2 2 4 3 3 3 4 4 2 2 4 3 7 9 6 9 23 29 26 22 22 22 21 23 23 22 21 20 23 21 21 21 23 24 24 23 24 24 25 25 26 26 25
1 1 2 1 3 4 7 5 3 3 3 2 6 7 10 15 21 23 22 23 22 22 22 21 21 21 20 20 20 22 22 22 23 23 23 23 23 23 22 24 24 24 24 26
2 3 2 3 3 6 5 1 4 3 0 5 11 12 16 19 20 20 21 21 22 21 21 20 21 22 21 19 20 22 23 23 23 23 23 23 23 22 22 22 24 24 23 24
2 1 1 2 3 3 3 4 7 7 8 16 13 17 18 19 19 20 20 22 21 21 21 21 22 22 23 22 22 22 23 22 23 24 24 24 23 23 22 21 21 22 24 24
2 4 2 2 2 1 3 6 7 9 17 15 16 17 16 16 19 20 22 22 21 21 21 21 22 24 25 24 24 23 23 23 24 25 26 25 23 22 24 23 21 23 25 23
3 2 1 2 5 1 1 6 10 18 14 15 17 17 16 16 20 20 22 21 21 22 22 23 25 25 26 26 27 25 23 23 24 26 25 25 26 26 25 25 27 24 25 27
Wind_Direction
187 202 214 219 224 255 318 211 191 137 140 165 126 114 90 73 67 61 52 44 40 36 28 29 30 34 35 32 29 20 7 330 247 195 169 281 269 264 260 256 252 250 253 256
173 225 228 238 237 237 237 237 230 168 166 186 131 111 95 80 73 65 57 48 40 32 27 26 28 32 35 36 35 30 26 14 353 271 219 214 218 250 245 260 260 259 255 255
218 89 294 196 208 218 230 234 225 234 155 215 131 145 140 101 85 69 57 51 42 34 25 22 24 25 32 35 35 32 29 24 10 341 278 270 254 302 310 297 279 269 262 260
238 178 152 192 220 217 236 221 244 214 201 230 193 219 165 145 98 64 49 42 36 30 27 22 20 22 26 31 33 34 32 30 27 14 348 294 253 220 68 311 281 281 273 264
183 185 202 219 225 222 258 167 217 218 223 257 209 246 112 157 119 61 47 40 35 30 25 23 21 19 16 21 27 31 32 30 32 29 24 10 259 247 251 251 125 9 304 275
71 86 211 26 101 221 132 132 129 176 215 237 235 213 151 171 52 76 54 39 32 28 26 24 21 19 18 17 17 19 25 28 28 26 27 25 15 337 271 260 263 237 211 234
201 209 135 208 173 165 199 178 180 207 205 241 199 201 72 105 83 71 56 42 33 27 23 19 17 17 14 14 14 16 16 16 20 21 20 19 17 10 360 330 292 275 263 246
194 204 182 138 246 220 202 212 225 225 221 223 146 217 120 115 107 89 64 49 36 28 23 20 16 14 13 12 11 12 12 12 11 12 12 12 8 4 0 355 341 314 284 272
206 145 122 59 344 300 156 220 304 278 260 284 131 101 137 148 122 96 72 49 34 23 17 15 13 12 10 9 9 8 8 7 8 8 5 2 359 355 352 347 340 330 311 292
74 166 50 79 237 77 307 14 188 214 242 237 226 134 106 174 140 99 54 35 22 16 13 10 9 7 7 6 4 4 5 5 2 2 2 0 356 352 345 338 332 327 323 316
327 275 121 186 25 15 213 209 244 295 284 265 268 113 17 108 94 69 44 25 15 9 8 5 3 2 1 1 1 1 1 359 358 359 358 355 353 350 346 340 334 328 322 316
37 1 136 55 91 46 43 19 332 254 231 260 295 122 85 91 75 45 35 15 3 2 2 1 359 356 355 356 356 356 355 354 353 351 350 349 347 346 345 341 338 333 328 322
4 144 145 168 194 147 57 40 45 86 27 233 285 116 135 114 83 43 7 0 350 349 353 354 353 352 350 350 349 348 348 346 345 344 342 340 339 338 338 337 336 334 331 328
22 65 31 47 63 52 120 81 43 24 218 355 26 133 173 114 34 6 353 343 342 343 346 345 345 344 343 342 341 340 340 340 338 337 336 334 332 331 331 330 328 327 326 324
46 91 79 84 60 64 79 44 20 353 49 267 58 90 133 42 342 330 324 325 329 332 339 340 338 336 336 335 333 333 334 334 333 332 331 330 328 326 324 323 322 321 319 318
16 111 107 90 52 72 92 44 47 58 76 116 126 118 102 299 311 323 329 326 329 334 331 333 331 330 330 331 330 329 330 329 328 327 326 326 324 324 324 323 321 318 316 315
111 132 158 122 106 103 230 37 25 81 60 352 273 74 42 354 333 325 321 321 330 327 328 326 325 324 324 324 325 323 324 325 324 322 322 322 321 321 322 321 320 318 317 315
142 125 70 131 145 233 85 53 29 23 88 80 114 75 7 314 302 301 273 233 317 322 321 320 320 320 321 320 320 319 322 323 322 322 320 319 319 319 320 319 318 317 316 314
114 148 118 185 205 113 172 49 26 24 99 100 106 33 348 326 316 168 192 315 318 317 317 317 318 319 318 318 317 318 321 322 322 323 318 318 319 317 316 316 316 317 314 311
100 59 264 161 238 272 63 101 81 38 226 128 74 356 346 345 333 76 314 315 317 318 318 317 318 311 315 321 320 318 318 320 320 314 315 314 314 313 312 312 311 312 309 309
124 67 207 200 250 125 116 130 140 238 72 137 353 327 324 308 296 296 308 313 315 312 315 316 309 316 316 312 315 310 312 312 312 311 312 312 311 310 310 308 308 307 308 307
5 210 119 129 216 231 156 143 233 98 156 293 309 308 296 296 301 308 311 310 312 314 315 314 311 310 311 311 310 309 308 310 309 310 309 310 310 309 307 307 307 308 304 302
186 4 60 6 53 113 141 89 194 176 246 321 305 301 304 303 303 305 306 309 308 308 309 310 308 308 309 310 307 304 305 307 308 307 307 308 307 307 307 308 306 305 307 303
94 114 71 192 141 157 283 238 215 222 297 315 305 307 305 299 301 301 303 302 304 306 307 307 307 307 306 307 305 302 304 305 305 304 305 305 305 307 304 302 304 302 304 304
42 163 117 98 148 309 211 192 217 265 304 304 306 305 298 294 294 296 298 300 301 302 303 304 305 301 301 304 303 302 303 304 302 302 301 301 303 301 301 299 299 300 297 300
174 114 239 66 154 292 187 243 262 292 298 303 303 301 295 291 292 296 295 297 297 298 302 300 297 298 299 300 300 300 300 300 298 297 299 296 297 296 298 300 298 295 293 295
Height
1473 1475 1472 1467 1466 1459 1462 1459 1461 1465 1475 1475 1490 1511 1525 1531 1532 1534 1536 1536 1535 1534 1534 1529 1525 1522 1519 1516 1512 1509 1509 1508 1509 1510 1511 1516 1518 1520 1521 1521 1521 1522 1523 1523
1474 1470 1463 1462 1462 1465 1469 1468 1466 1464 1473 1479 1497 1515 1527 1532 1536 1538 1539 1540 1539 1538 1535 1531 1528 1524 1521 1518 1515 1513 1511 1510 1509 1510 1512 1512 1514 1517 1518 1519 1519 1520 1521 1522
1461 1460 1463 1464 1467 1470 1468 1467 1463 1467 1476 1478 1492 1514 1524 1533 1536 1539 1541 1542 1542 1540 1538 1535 1531 1528 1525 1521 1517 1515 1514 1512 1511 1510 1510 1512 1514 1516 1517 1517 1517 1518 1519 1520
1462 1459 1464 1467 1465 1465 1466 1460 1465 1468 1476 1474 1470 1472 1506 1525 1534 1539 1543 1544 1544 1543 1542 1539 1535 1531 1527 1525 1523 1520 1517 1514 1512 1511 1510 1511 1513 1514 1513 1514 1515 1516 1516 1517
1459 1463 1466 1465 1461 1461 1462 1465 1466 1469 1472 1468 1472 1476 1513 1520 1528 1540 1545 1547 1547 1546 1545 1543 1540 1537 1534 1529 1526 1524 1521 1518 1514 1512 1511 1511 1511 1512 1512 1512 1511 1514 1515 1514
1458 1463 1463 1459 1464 1464 1467 1467 1469 1471 1469 1479 1462 1465 1501 1512 1531 1542 1548 1550 1550 1549 1547 1546 1543 1541 1537 1534 1530 1526 1523 1520 1517 1515 1513 1511 1510 1509 1510 1510 1511 1510 1509 1510
1457 1460 1464 1465 1464 1468 1468 1466 1470 1477 1480 1467 1457 1455 1521 1539 1545 1548 1551 1552 1552 1551 1549 1547 1544 1541 1539 1535 1531 1528 1525 1522 1520 1518 1515 1513 1511 1510 1508 1507 1507 1507 1507 1507
1453 1464 1462 1466 1461 1459 1464 1460 1457 1462 1457 1449 1464 1463 1528 1543 1548 1551 1552 1553 1553 1553 1551 1549 1547 1544 1541 1538 1534 1530 1527 1524 1522 1519 1517 1515 1513 1511 1509 1507 1505 1504 1503 1503
1450 1454 1466 1468 1467 1466 1461 1468 1459 1460 1450 1458 1466 1532 1541 1544 1548 1551 1553 1555 1555 1555 1553 1552 1549 1547 1544 1540 1536 1532 1529 1526 1523 1520 1518 1516 1514 1512 1510 1508 1506 1503 1501 1499
1458 1455 1465 1468 1468 1468 1466 1466 1466 1463 1465 1459 1441 1477 1507 1538 1543 1550 1553 1556 1557 1556 1555 1553 1550 1547 1545 1542 1538 1535 1531 1528 1525 1521 1519 1516 1514 1512 1510 1508 1505 1502 1500 1497
1467 1463 1468 1468 1478 1474 1467 1464 1465 1465 1459 1454 1448 1490 1530 1537 1547 1551 1556 1557 1558 1557 1555 1553 1551 1548 1545 1542 1538 1535 1531 1528 1525 1522 1519 1516 1514 1511 1508 1506 1504 1501 1498 1495
1475 1470 1460 1476 1490 1489 1488 1486 1482 1468 1459 1467 1477 1509 1545 1548 1553 1555 1557 1558 1558 1557 1555 1553 1550 1547 1543 1540 1537 1534 1531 1528 1525 1522 1519 1516 1513 1510 1507 1504 1501 1498 1496 1494
1478 1475 1472 1479 1488 1490 1494 1501 1498 1495 1495 1481 1478 1509 1550 1553 1554 1557 1557 1558 1558 1557 1555 1552 1549 1545 1542 1539 1536 1533 1530 1527 1524 1521 1518 1514 1511 1508 1505 1502 1499 1497 1493 1490
1481 1483 1485 1472 1490 1493 1498 1505 1506 1503 1498 1491 1495 1539 1551 1554 1556 1558 1559 1558 1557 1556 1554 1551 1547 1545 1542 1538 1535 1531 1528 1525 1522 1518 1515 1512 1509 1506 1502 1499 1497 1494 1491 1488
1485 1489 1493 1496 1498 1501 1508 1510 1512 1510 1526 1514 1534 1537 1551 1558 1560 1560 1559 1558 1557 1556 1554 1551 1547 1544 1540 1537 1533 1530 1527 1523 1519 1515 1511 1508 1505 1502 1499 1496 1493 1490 1487 1484
1491 1495 1497 1503 1504 1504 1513 1521 1521 1523 1532 1537 1543 1546 1558 1559 1559 1558 1558 1557 1557 1556 1553 1550 1546 1542 1538 1534 1530 1526 1523 1520 1516 1512 1508 1504 1501 1497 1494 1491 1488 1485 1483 1480
1492 1497 1500 1496 1507 1507 1511 1533 1528 1533 1539 1542 1528 1553 1557 1557 1558 1557 1557 1556 1555 1553 1550 1547 1543 1540 1536 1532 1528 1523 1520 1517 1513 1509 1505 1501 1497 1493 1490 1486 1483 1480 1477 1474
1494 1497 1501 1507 1507 1507 1545 1545 1545 1542 1547 1550 1552 1557 1559 1559 1556 1554 1553 1554 1553 1551 1547 1543 1539 1535 1532 1528 1524 1520 1517 1513 1509 1505 1501 1498 1494 1489 1485 1482 1479 1475 1472 1469
1499 1498 1511 1506 1501 1535 1544 1547 1548 1547 1546 1555 1555 1558 1558 1556 1551 1552 1553 1552 1550 1546 1542 1538 1535 1531 1527 1524 1520 1516 1512 1509 1506 1502 1498 1494 1490 1486 1482 1478 1474 1471 1467 1464
1503 1502 1499 1508 1501 1500 1539 1550 1553 1553 1536 1556 1557 1558 1557 1554 1547 1550 1551 1548 1544 1541 1538 1534 1530 1527 1523 1519 1516 1512 1508 1505 1502 1499 1494 1490 1486 1482 1477 1473 1469 1466 1463 1459
1503 1506 1503 1499 1501 1536 1550 1552 1554 1540 1548 1557 1557 1557 1556 1556 1555 1549 1545 1542 1540 1536 1533 1530 1526 1522 1519 1515 1512 1508 1504 1501 1498 1493 1489 1485 1481 1477 1474 1470 1466 1462 1459 1456
1511 1507 1505 1517 1512 1516 1550 1553 1549 1554 1556 1556 1556 1555 1553 1552 1548 1544 1541 1538 1534 1531 1528 1525 1521 1517 1514 1511 1508 1503 1500 1496 1492 1487 1483 1480 1476 1473 1469 1465 1461 1458 1455 1450
1521 1534 1522 1534 1534 1547 1549 1550 1550 1552 1554 1554 1553 1551 1549 1546 1544 1541 1537 1535 1531 1528 1524 1521 1517 1513 1510 1507 1504 1499 1495 1491 1486 1482 1478 1474 1471 1467 1464 1460 1457 1452 1449 1446
1538 1540 1534 1539 1546 1547 1547 1548 1550 1551 1551 1550 1548 1546 1544 1542 1540 1537 1535 1531 1527 1523 1519 1516 1512 1508 1505 1502 1498 1494 1489 1485 1481 1476 1472 1469 1465 1461 1459 1455 1452 1448 1445 1441
1536 1539 1540 1541 1546 1547 1547 1548 1549 1548 1547 1545 1544 1542 1540 1539 1536 1534 1529 1525 1521 1518 1514 1511 1507 1503 1499 1495 1491 1487 1483 1480 1475 1471 1466 1463 1459 1456 1452 1449 1446 1443 1440 1437
1537 1537 1534 1532 1544 1545 1546 1546 1545 1544 1543 1541 1539 1537 1536 1534 1530 1527 1523 1520 1516 1513 1509 1506 1502 1497 1493 1488 1484 1480 1477 1474 1469 1464 1460 1457 1454 1450 1446 1442 1438 1437 1434 1431